QPF
0.00 0.00 0.00 0.00 0.01 0.02 0.04 0.08 0.11 0.09 0.11 0.19 0.19 0.13 0.07 0.03 0.03 0.04 0.04 0.03 0.02 0.01 0.01 0.01 0.01 0.01 0.02 0.03 0.02 0.02 0.03 0.04 0.05 0.04 0.03 0.02 0.01 0.00 0.00 0.00 0.00 0.00 0.00 0.00
0.00 0.00 0.00 0.00 0.00 0.00 0.01 0.01 0.04 0.07 0.14 0.16 0.12 0.08 0.04 0.03 0.02 0.02 0.04 0.05 0.04 0.03 0.02 0.01 0.01 0.01 0.03 0.03 0.03 0.03 0.04 0.04 0.04 0.03 0.03 0.03 0.02 0.02 0.02 0.01 0.00 0.00 0.00 0.00
0.01 0.00 0.01 0.02 0.00 0.00 0.01 0.02 0.04 0.13 0.18 0.13 0.09 0.05 0.03 0.02 0.01 0.01 0.02 0.04 0.04 0.04 0.03 0.03 0.03 0.03 0.04 0.04 0.03 0.03 0.02 0.02 0.02 0.03 0.03 0.03 0.03 0.03 0.04 0.03 0.02 0.01 0.01 0.01
0.01 0.02 0.04 0.02 0.00 0.00 0.01 0.01 0.01 0.05 0.08 0.06 0.05 0.02 0.01 0.01 0.01 0.01 0.01 0.02 0.02 0.02 0.03 0.03 0.03 0.05 0.05 0.04 0.03 0.02 0.02 0.02 0.02 0.02 0.03 0.03 0.04 0.05 0.05 0.04 0.03 0.03 0.03 0.03
0.01 0.02 0.02 0.01 0.00 0.00 0.01 0.02 0.00 0.01 0.02 0.01 0.01 0.02 0.04 0.02 0.00 0.00 0.00 0.01 0.01 0.01 0.02 0.03 0.04 0.06 0.06 0.06 0.05 0.04 0.03 0.03 0.02 0.02 0.03 0.04 0.04 0.04 0.04 0.04 0.03 0.02 0.03 0.05
0.00 0.01 0.01 0.01 0.00 0.00 0.01 0.04 0.01 0.00 0.01 0.01 0.02 0.08 0.12 0.04 0.00 0.00 0.00 0.01 0.01 0.01 0.03 0.05 0.07 0.06 0.07 0.08 0.08 0.07 0.05 0.04 0.04 0.05 0.05 0.06 0.06 0.04 0.03 0.03 0.03 0.03 0.03 0.04
0.00 0.00 0.00 0.00 0.00 0.00 0.03 0.08 0.01 0.00 0.00 0.00 0.02 0.06 0.05 0.01 0.00 0.00 0.01 0.02 0.02 0.03 0.07 0.07 0.06 0.06 0.08 0.08 0.08 0.06 0.05 0.05 0.07 0.07 0.05 0.06 0.06 0.05 0.05 0.05 0.05 0.04 0.03 0.03
0.00 0.00 0.00 0.00 0.00 0.00 0.01 0.01 0.00 0.00 0.00 0.00 0.01 0.01 0.00 0.00 0.00 0.01 0.02 0.03 0.03 0.05 0.07 0.06 0.04 0.06 0.08 0.08 0.06 0.04 0.04 0.04 0.05 0.05 0.03 0.03 0.05 0.06 0.05 0.06 0.05 0.05 0.05 0.05
0.00 0.00 0.00 0.00 0.00 0.00 0.00 0.00 0.00 0.00 0.00 0.00 0.00 0.00 0.00 0.00 0.00 0.01 0.01 0.03 0.02 0.03 0.05 0.05 0.04 0.05 0.07 0.06 0.04 0.03 0.03 0.04 0.04 0.04 0.05 0.05 0.05 0.05 0.04 0.04 0.04 0.05 0.07 0.08
0.00 0.00 0.00 0.00 0.00 0.00 0.00 0.00 0.00 0.00 0.00 0.00 0.00 0.00 0.00 0.00 0.00 0.01 0.02 0.02 0.01 0.03 0.05 0.07 0.07 0.05 0.05 0.03 0.03 0.04 0.05 0.05 0.06 0.06 0.06 0.05 0.04 0.03 0.03 0.03 0.04 0.05 0.06 0.08
0.00 0.00 0.00 0.00 0.00 0.00 0.00 0.00 0.00 0.00 0.00 0.00 0.00 0.00 0.00 0.00 0.00 0.00 0.01 0.01 0.02 0.03 0.05 0.06 0.07 0.04 0.03 0.02 0.02 0.04 0.06 0.07 0.07 0.08 0.06 0.06 0.03 0.02 0.02 0.02 0.02 0.03 0.05 0.05
0.00 0.00 0.00 0.00 0.00 0.00 0.00 0.00 0.00 0.00 0.00 0.00 0.00 0.00 0.00 0.00 0.00 0.00 0.00 0.00 0.01 0.01 0.02 0.03 0.03 0.02 0.01 0.01 0.02 0.04 0.06 0.06 0.06 0.07 0.06 0.06 0.04 0.02 0.00 0.00 0.00 0.01 0.02 0.03
0.00 0.00 0.00 0.00 0.00 0.00 0.00 0.00 0.00 0.00 0.00 0.00 0.00 0.00 0.00 0.00 0.00 0.00 0.00 0.00 0.00 0.00 0.00 0.00 0.01 0.01 0.00 0.00 0.01 0.02 0.03 0.03 0.03 0.03 0.04 0.03 0.04 0.03 0.02 0.01 0.00 0.00 0.00 0.00
0.00 0.00 0.00 0.00 0.00 0.00 0.00 0.00 0.00 0.00 0.00 0.00 0.00 0.00 0.00 0.00 0.00 0.00 0.00 0.00 0.00 0.00 0.00 0.00 0.00 0.00 0.00 0.00 0.00 0.00 0.00 0.00 0.00 0.01 0.01 0.01 0.01 0.02 0.02 0.02 0.01 0.00 0.00 0.00
0.00 0.00 0.00 0.00 0.00 0.00 0.00 0.00 0.00 0.00 0.00 0.00 0.00 0.00 0.00 0.00 0.00 0.00 0.00 0.00 0.00 0.00 0.00 0.00 0.00 0.00 0.00 0.00 0.00 0.00 0.00 0.00 0.00 0.00 0.00 0.00 0.00 0.00 0.00 0.00 0.01 0.01 0.00 0.00
0.00 0.00 0.00 0.00 0.00 0.00 0.00 0.00 0.00 0.00 0.00 0.00 0.00 0.00 0.00 0.00 0.00 0.00 0.00 0.00 0.00 0.00 0.00 0.00 0.00 0.00 0.00 0.00 0.00 0.00 0.00 0.00 0.00 0.00 0.00 0.00 0.00 0.00 0.00 0.00 0.00 0.00 0.00 0.00
0.00 0.00 0.00 0.00 0.00 0.00 0.00 0.00 0.00 0.00 0.00 0.00 0.00 0.00 0.00 0.00 0.00 0.00 0.00 0.00 0.00 0.00 0.00 0.00 0.00 0.00 0.00 0.00 0.00 0.00 0.00 0.00 0.00 0.00 0.00 0.00 0.00 0.00 0.00 0.00 0.00 0.00 0.00 0.00
0.00 0.00 0.00 0.00 0.00 0.00 0.00 0.00 0.00 0.00 0.00 0.00 0.00 0.00 0.00 0.00 0.00 0.00 0.00 0.00 0.00 0.00 0.00 0.00 0.00 0.00 0.00 0.00 0.00 0.00 0.00 0.00 0.00 0.00 0.00 0.00 0.00 0.00 0.00 0.00 0.00 0.00 0.00 0.00
0.00 0.00 0.00 0.00 0.00 0.00 0.00 0.00 0.00 0.00 0.00 0.00 0.00 0.00 0.00 0.00 0.00 0.00 0.00 0.00 0.00 0.00 0.00 0.00 0.00 0.00 0.00 0.00 0.00 0.00 0.00 0.00 0.00 0.00 0.00 0.00 0.00 0.00 0.00 0.00 0.00 0.00 0.00 0.00
0.00 0.00 0.00 0.00 0.00 0.00 0.00 0.00 0.00 0.00 0.00 0.00 0.00 0.00 0.00 0.00 0.00 0.00 0.00 0.00 0.00 0.00 0.00 0.00 0.00 0.00 0.00 0.00 0.00 0.00 0.00 0.00 0.00 0.00 0.00 0.00 0.00 0.00 0.00 0.00 0.00 0.00 0.00 0.00
0.00 0.00 0.00 0.00 0.00 0.00 0.00 0.00 0.00 0.00 0.00 0.00 0.00 0.00 0.00 0.00 0.00 0.00 0.00 0.00 0.00 0.00 0.00 0.00 0.00 0.00 0.00 0.00 0.00 0.00 0.00 0.00 0.00 0.00 0.00 0.00 0.00 0.00 0.00 0.00 0.00 0.00 0.00 0.00
0.00 0.00 0.00 0.00 0.00 0.00 0.00 0.00 0.00 0.00 0.00 0.00 0.00 0.00 0.00 0.00 0.00 0.00 0.00 0.00 0.00 0.00 0.00 0.00 0.00 0.00 0.00 0.00 0.00 0.00 0.00 0.00 0.00 0.00 0.00 0.00 0.00 0.00 0.00 0.00 0.00 0.00 0.00 0.00
0.00 0.00 0.00 0.00 0.00 0.00 0.00 0.00 0.00 0.00 0.00 0.00 0.00 0.00 0.00 0.00 0.00 0.00 0.00 0.00 0.00 0.00 0.00 0.00 0.00 0.00 0.00 0.00 0.00 0.00 0.00 0.00 0.00 0.00 0.00 0.00 0.00 0.00 0.00 0.00 0.00 0.00 0.01 0.01
0.00 0.00 0.00 0.00 0.00 0.00 0.00 0.00 0.00 0.00 0.00 0.00 0.00 0.00 0.00 0.00 0.00 0.00 0.00 0.00 0.00 0.00 0.00 0.00 0.00 0.00 0.00 0.00 0.00 0.00 0.00 0.00 0.00 0.00 0.00 0.00 0.00 0.00 0.00 0.01 0.01 0.01 0.01 0.00
0.00 0.00 0.00 0.01 0.02 0.01 0.01 0.00 0.00 0.00 0.00 0.00 0.00 0.00 0.00 0.00 0.00 0.00 0.00 0.00 0.00 0.00 0.00 0.00 0.00 0.00 0.00 0.00 0.00 0.00 0.00 0.00 0.00 0.00 0.00 0.00 0.00 0.01 0.01 0.01 0.01 0.00 0.00 0.00
0.01 0.01 0.03 0.04 0.05 0.05 0.03 0.01 0.01 0.00 0.00 0.00 0.00 0.00 0.00 0.00 0.00 0.00 0.00 0.00 0.00 0.00 0.00 0.00 0.00 0.00 0.00 0.00 0.00 0.00 0.00 0.00 0.00 0.00 0.00 0.00 0.00 0.00 0.00 0.00 0.00 0.00 0.00 0.00
0.02 0.03 0.05 0.05 0.04 0.05 0.05 0.04 0.02 0.01 0.00 0.00 0.00 0.00 0.00 0.00 0.00 0.00 0.00 0.00 0.00 0.00 0.00 0.00 0.00 0.00 0.00 0.00 0.00 0.00 0.00 0.00 0.00 0.00 0.00 0.00 0.00 0.00 0.00 0.00 0.00 0.00 0.00 0.00
MSLP
1011.56 1011.74 1011.89 1012.02 1012.14 1012.23 1012.29 1012.32 1012.32 1012.30 1012.27 1012.26 1012.27 1012.33 1012.44 1012.58 1012.75 1012.91 1013.04 1013.12 1013.13 1013.07 1012.95 1012.79 1012.63 1012.49 1012.40 1012.38 1012.42 1012.51 1012.64 1012.78 1012.92 1013.04 1013.13 1013.20 1013.25 1013.29 1013.33 1013.36 1013.39 1013.41 1013.40 1013.37
1011.53 1011.62 1011.66 1011.67 1011.65 1011.62 1011.59 1011.57 1011.57 1011.60 1011.67 1011.79 1011.95 1012.16 1012.39 1012.64 1012.88 1013.08 1013.22 1013.29 1013.28 1013.20 1013.08 1012.93 1012.79 1012.68 1012.61 1012.61 1012.66 1012.75 1012.87 1013.00 1013.13 1013.24 1013.32 1013.39 1013.45 1013.50 1013.55 1013.61 1013.65 1013.69 1013.70 1013.68
1011.36 1011.39 1011.35 1011.26 1011.14 1011.02 1010.92 1010.86 1010.87 1010.94 1011.09 1011.32 1011.60 1011.94 1012.29 1012.62 1012.93 1013.17 1013.32 1013.39 1013.38 1013.30 1013.18 1013.04 1012.91 1012.82 1012.78 1012.79 1012.85 1012.95 1013.07 1013.19 1013.30 1013.40 1013.48 1013.55 1013.62 1013.69 1013.76 1013.84 1013.91 1013.97 1014.00 1013.99
1011.09 1011.07 1010.98 1010.83 1010.65 1010.47 1010.33 1010.25 1010.25 1010.35 1010.55 1010.85 1011.22 1011.64 1012.07 1012.47 1012.83 1013.10 1013.28 1013.36 1013.35 1013.28 1013.17 1013.05 1012.95 1012.89 1012.87 1012.91 1012.99 1013.10 1013.22 1013.34 1013.45 1013.54 1013.63 1013.71 1013.79 1013.87 1013.97 1014.07 1014.17 1014.25 1014.30 1014.31
1010.75 1010.70 1010.58 1010.40 1010.20 1010.00 1009.83 1009.73 1009.72 1009.83 1010.05 1010.38 1010.79 1011.25 1011.72 1012.16 1012.54 1012.84 1013.03 1013.13 1013.14 1013.10 1013.02 1012.94 1012.88 1012.86 1012.90 1012.97 1013.09 1013.22 1013.36 1013.48 1013.60 1013.70 1013.79 1013.87 1013.97 1014.07 1014.19 1014.32 1014.44 1014.55 1014.62 1014.64
1010.35 1010.28 1010.15 1009.98 1009.77 1009.56 1009.39 1009.28 1009.26 1009.36 1009.58 1009.90 1010.31 1010.77 1011.25 1011.70 1012.09 1012.40 1012.61 1012.73 1012.78 1012.77 1012.74 1012.72 1012.72 1012.77 1012.86 1012.99 1013.15 1013.32 1013.48 1013.63 1013.76 1013.87 1013.97 1014.06 1014.17 1014.29 1014.43 1014.58 1014.73 1014.86 1014.96 1015.00
1009.92 1009.83 1009.70 1009.53 1009.33 1009.14 1008.97 1008.86 1008.84 1008.93 1009.12 1009.42 1009.81 1010.25 1010.71 1011.15 1011.54 1011.85 1012.08 1012.23 1012.32 1012.37 1012.40 1012.44 1012.51 1012.63 1012.79 1012.98 1013.20 1013.41 1013.61 1013.79 1013.93 1014.06 1014.17 1014.27 1014.39 1014.53 1014.69 1014.86 1015.04 1015.20 1015.32 1015.40
1009.44 1009.33 1009.19 1009.03 1008.86 1008.69 1008.54 1008.44 1008.43 1008.50 1008.68 1008.96 1009.33 1009.74 1010.18 1010.61 1010.99 1011.32 1011.57 1011.75 1011.87 1011.97 1012.06 1012.17 1012.31 1012.49 1012.72 1012.97 1013.23 1013.49 1013.73 1013.93 1014.10 1014.24 1014.36 1014.47 1014.60 1014.75 1014.93 1015.12 1015.33 1015.52 1015.69 1015.80
1008.92 1008.77 1008.62 1008.47 1008.31 1008.17 1008.06 1007.99 1007.99 1008.08 1008.26 1008.53 1008.89 1009.30 1009.73 1010.16 1010.55 1010.88 1011.16 1011.37 1011.53 1011.67 1011.81 1011.97 1012.16 1012.39 1012.66 1012.96 1013.26 1013.55 1013.81 1014.04 1014.22 1014.37 1014.50 1014.62 1014.76 1014.92 1015.11 1015.33 1015.56 1015.80 1016.00 1016.17
1008.30 1008.11 1007.95 1007.81 1007.68 1007.57 1007.49 1007.46 1007.50 1007.63 1007.84 1008.14 1008.52 1008.94 1009.39 1009.84 1010.25 1010.61 1010.91 1011.16 1011.35 1011.52 1011.69 1011.88 1012.09 1012.34 1012.63 1012.94 1013.26 1013.56 1013.83 1014.07 1014.26 1014.42 1014.55 1014.68 1014.81 1014.98 1015.18 1015.42 1015.68 1015.96 1016.21 1016.42
1007.57 1007.36 1007.18 1007.05 1006.94 1006.87 1006.84 1006.86 1006.96 1007.14 1007.40 1007.76 1008.18 1008.66 1009.15 1009.64 1010.10 1010.50 1010.83 1011.10 1011.32 1011.51 1011.69 1011.88 1012.09 1012.33 1012.60 1012.90 1013.21 1013.50 1013.76 1013.99 1014.18 1014.33 1014.46 1014.59 1014.73 1014.90 1015.11 1015.36 1015.64 1015.95 1016.24 1016.50
1006.73 1006.49 1006.32 1006.20 1006.12 1006.08 1006.10 1006.19 1006.34 1006.59 1006.92 1007.34 1007.84 1008.38 1008.94 1009.50 1010.01 1010.46 1010.84 1011.14 1011.38 1011.58 1011.75 1011.91 1012.10 1012.31 1012.55 1012.81 1013.08 1013.34 1013.58 1013.79 1013.97 1014.11 1014.23 1014.35 1014.49 1014.66 1014.87 1015.12 1015.42 1015.74 1016.06 1016.36
1005.78 1005.56 1005.41 1005.31 1005.26 1005.26 1005.32 1005.45 1005.66 1005.96 1006.36 1006.85 1007.42 1008.03 1008.67 1009.29 1009.87 1010.38 1010.81 1011.15 1011.41 1011.61 1011.77 1011.91 1012.06 1012.23 1012.42 1012.64 1012.86 1013.09 1013.29 1013.48 1013.63 1013.76 1013.87 1013.98 1014.11 1014.27 1014.47 1014.72 1015.01 1015.34 1015.68 1015.99
1004.81 1004.63 1004.51 1004.44 1004.42 1004.45 1004.54 1004.69 1004.93 1005.27 1005.71 1006.25 1006.87 1007.54 1008.24 1008.93 1009.57 1010.14 1010.62 1011.00 1011.29 1011.51 1011.67 1011.80 1011.92 1012.05 1012.20 1012.37 1012.55 1012.74 1012.92 1013.08 1013.21 1013.32 1013.42 1013.52 1013.63 1013.78 1013.97 1014.20 1014.48 1014.80 1015.13 1015.45
1003.90 1003.79 1003.72 1003.69 1003.69 1003.73 1003.82 1003.97 1004.20 1004.54 1004.98 1005.53 1006.16 1006.87 1007.60 1008.34 1009.03 1009.66 1010.19 1010.63 1010.96 1011.20 1011.38 1011.52 1011.64 1011.75 1011.88 1012.02 1012.17 1012.33 1012.48 1012.62 1012.74 1012.84 1012.93 1013.02 1013.12 1013.24 1013.41 1013.62 1013.88 1014.17 1014.49 1014.81
1003.15 1003.12 1003.12 1003.12 1003.13 1003.16 1003.22 1003.33 1003.52 1003.80 1004.19 1004.70 1005.31 1006.01 1006.75 1007.50 1008.23 1008.90 1009.49 1009.98 1010.36 1010.66 1010.88 1011.05 1011.19 1011.32 1011.45 1011.59 1011.73 1011.88 1012.02 1012.15 1012.26 1012.35 1012.43 1012.51 1012.60 1012.70 1012.85 1013.04 1013.27 1013.54 1013.83 1014.13
1002.63 1002.69 1002.74 1002.77 1002.78 1002.77 1002.77 1002.81 1002.90 1003.10 1003.40 1003.82 1004.36 1005.00 1005.71 1006.45 1007.19 1007.89 1008.53 1009.08 1009.53 1009.90 1010.19 1010.42 1010.61 1010.78 1010.94 1011.09 1011.25 1011.40 1011.55 1011.68 1011.79 1011.88 1011.95 1012.02 1012.10 1012.19 1012.32 1012.48 1012.69 1012.93 1013.20 1013.48
1002.38 1002.52 1002.61 1002.65 1002.63 1002.56 1002.48 1002.41 1002.39 1002.45 1002.63 1002.93 1003.36 1003.92 1004.56 1005.27 1006.00 1006.72 1007.39 1008.00 1008.53 1008.97 1009.34 1009.65 1009.91 1010.14 1010.35 1010.54 1010.72 1010.90 1011.05 1011.19 1011.30 1011.40 1011.48 1011.54 1011.62 1011.71 1011.82 1011.97 1012.16 1012.38 1012.63 1012.90
1002.37 1002.55 1002.66 1002.69 1002.62 1002.48 1002.30 1002.11 1001.95 1001.87 1001.90 1002.06 1002.37 1002.82 1003.38 1004.04 1004.74 1005.46 1006.16 1006.82 1007.41 1007.94 1008.39 1008.79 1009.12 1009.42 1009.68 1009.92 1010.14 1010.33 1010.51 1010.66 1010.78 1010.88 1010.97 1011.04 1011.12 1011.21 1011.33 1011.47 1011.66 1011.87 1012.12 1012.39
1002.49 1002.69 1002.79 1002.78 1002.66 1002.43 1002.14 1001.83 1001.54 1001.32 1001.21 1001.24 1001.43 1001.76 1002.24 1002.83 1003.50 1004.21 1004.92 1005.62 1006.27 1006.86 1007.38 1007.85 1008.26 1008.61 1008.93 1009.21 1009.45 1009.67 1009.87 1010.03 1010.17 1010.28 1010.38 1010.47 1010.57 1010.68 1010.81 1010.96 1011.16 1011.38 1011.63 1011.91
1002.64 1002.81 1002.88 1002.81 1002.61 1002.30 1001.92 1001.50 1001.09 1000.75 1000.53 1000.44 1000.52 1000.77 1001.17 1001.69 1002.32 1003.01 1003.73 1004.44 1005.13 1005.76 1006.34 1006.86 1007.31 1007.71 1008.07 1008.38 1008.65 1008.88 1009.09 1009.27 1009.43 1009.56 1009.69 1009.80 1009.93 1010.07 1010.23 1010.41 1010.63 1010.88 1011.15 1011.44
1002.71 1002.82 1002.82 1002.68 1002.41 1002.02 1001.55 1001.04 1000.55 1000.13 999.82 999.66 999.66 999.84 1000.17 1000.65 1001.24 1001.90 1002.60 1003.32 1004.01 1004.67 1005.27 1005.81 1006.29 1006.71 1007.08 1007.41 1007.69 1007.94 1008.17 1008.36 1008.54 1008.71 1008.87 1009.03 1009.20 1009.38 1009.59 1009.82 1010.07 1010.35 1010.64 1010.96
1002.63 1002.66 1002.57 1002.35 1002.00 1001.54 1001.01 1000.44 999.90 999.44 999.08 998.87 998.83 998.96 999.25 999.69 1000.24 1000.88 1001.55 1002.25 1002.93 1003.57 1004.17 1004.71 1005.19 1005.61 1005.98 1006.31 1006.60 1006.87 1007.11 1007.33 1007.54 1007.75 1007.96 1008.18 1008.40 1008.65 1008.91 1009.19 1009.49 1009.80 1010.13 1010.47
1002.39 1002.33 1002.15 1001.84 1001.41 1000.89 1000.32 999.72 999.16 998.68 998.31 998.09 998.03 998.15 998.42 998.82 999.34 999.94 1000.58 1001.24 1001.89 1002.50 1003.06 1003.58 1004.04 1004.44 1004.81 1005.13 1005.43 1005.71 1005.97 1006.23 1006.49 1006.75 1007.02 1007.30 1007.60 1007.90 1008.23 1008.57 1008.92 1009.28 1009.64 1009.99
1002.05 1001.88 1001.60 1001.21 1000.72 1000.15 999.55 998.95 998.39 997.91 997.56 997.35 997.30 997.41 997.67 998.06 998.55 999.11 999.71 1000.32 1000.91 1001.47 1001.99 1002.47 1002.89 1003.27 1003.62 1003.94 1004.25 1004.54 1004.84 1005.14 1005.45 1005.78 1006.12 1006.47 1006.84 1007.22 1007.61 1008.01 1008.41 1008.80 1009.19 1009.57
1001.68 1001.40 1001.03 1000.56 1000.02 999.42 998.80 998.20 997.66 997.22 996.89 996.71 996.68 996.80 997.06 997.43 997.88 998.40 998.95 999.50 1000.04 1000.55 1001.01 1001.44 1001.83 1002.18 1002.52 1002.84 1003.15 1003.47 1003.81 1004.16 1004.53 1004.92 1005.33 1005.76 1006.20 1006.65 1007.10 1007.55 1007.99 1008.41 1008.83 1009.22
1001.32 1000.96 1000.51 999.99 999.40 998.77 998.15 997.57 997.06 996.64 996.36 996.20 996.20 996.33 996.59 996.94 997.37 997.85 998.35 998.85 999.33 999.78 1000.20 1000.58 1000.93 1001.27 1001.59 1001.91 1002.24 1002.60 1002.97 1003.37 1003.80 1004.26 1004.74 1005.23 1005.73 1006.23 1006.72 1007.21 1007.68 1008.13 1008.56 1008.96
Thickness
5681 5684 5682 5677 5673 5667 5655 5643 5630 5633 5636 5642 5643 5642 5641 5638 5637 5636 5637 5638 5638 5639 5641 5644 5647 5650 5651 5653 5655 5656 5655 5654 5654 5654 5653 5653 5652 5651 5651 5650 5651 5650 5651 5651
5672 5680 5679 5672 5672 5666 5657 5649 5640 5636 5632 5641 5641 5637 5632 5630 5629 5628 5627 5628 5629 5629 5630 5633 5636 5639 5640 5641 5643 5644 5644 5643 5644 5643 5643 5641 5641 5641 5640 5639 5639 5639 5639 5639
5662 5673 5670 5658 5666 5659 5651 5649 5641 5626 5625 5633 5629 5627 5624 5622 5622 5620 5620 5620 5620 5620 5621 5622 5626 5628 5629 5631 5632 5633 5633 5633 5633 5633 5632 5631 5631 5630 5628 5626 5626 5625 5626 5626
5661 5660 5641 5663 5674 5666 5654 5650 5647 5638 5635 5631 5628 5627 5626 5623 5619 5616 5616 5615 5614 5614 5614 5616 5619 5620 5621 5622 5622 5622 5623 5623 5623 5622 5621 5620 5619 5617 5615 5614 5613 5611 5611 5611
5657 5654 5657 5667 5669 5663 5650 5644 5650 5642 5638 5636 5633 5626 5621 5622 5619 5616 5614 5612 5611 5610 5611 5611 5611 5612 5613 5613 5613 5614 5614 5614 5614 5613 5611 5609 5607 5605 5603 5602 5600 5599 5598 5598
5655 5644 5642 5664 5672 5671 5655 5639 5650 5646 5640 5637 5631 5616 5614 5620 5617 5614 5611 5608 5606 5607 5606 5605 5605 5606 5605 5606 5606 5605 5606 5606 5605 5604 5602 5600 5598 5596 5594 5592 5590 5588 5586 5585
5655 5653 5663 5677 5676 5667 5640 5636 5646 5647 5643 5638 5630 5621 5619 5618 5613 5609 5605 5603 5602 5602 5600 5599 5600 5600 5599 5600 5599 5599 5600 5599 5597 5596 5594 5592 5590 5588 5586 5583 5580 5577 5575 5573
5663 5653 5656 5673 5671 5657 5649 5651 5651 5648 5646 5640 5633 5626 5621 5615 5610 5605 5602 5600 5598 5596 5595 5595 5595 5595 5593 5592 5593 5593 5593 5592 5590 5588 5588 5586 5582 5580 5578 5575 5571 5568 5566 5563
5666 5664 5671 5676 5669 5667 5664 5656 5652 5650 5649 5643 5634 5626 5620 5613 5608 5604 5601 5598 5596 5595 5592 5591 5591 5590 5588 5587 5588 5588 5587 5585 5583 5582 5579 5578 5575 5572 5570 5567 5564 5560 5557 5554
5664 5669 5673 5676 5675 5671 5667 5660 5657 5654 5651 5645 5636 5630 5622 5615 5609 5604 5600 5597 5595 5593 5590 5587 5587 5587 5586 5585 5585 5583 5581 5580 5577 5575 5573 5570 5568 5566 5563 5560 5557 5553 5549 5546
5661 5667 5668 5670 5671 5671 5668 5664 5658 5655 5652 5647 5640 5633 5626 5618 5612 5606 5601 5598 5595 5592 5588 5586 5585 5584 5584 5583 5581 5580 5578 5576 5574 5571 5568 5565 5562 5558 5556 5551 5548 5545 5541 5538
5656 5667 5665 5667 5673 5675 5669 5664 5659 5653 5650 5647 5642 5634 5629 5622 5615 5608 5603 5599 5595 5592 5589 5586 5584 5582 5581 5581 5579 5577 5574 5573 5571 5568 5565 5561 5557 5552 5544 5542 5537 5534 5531 5529
5666 5669 5669 5670 5671 5672 5670 5667 5662 5656 5650 5645 5641 5636 5630 5623 5616 5610 5605 5600 5596 5593 5590 5587 5584 5582 5581 5580 5578 5576 5573 5571 5570 5567 5563 5560 5556 5551 5544 5535 5529 5525 5523 5519
5670 5667 5663 5665 5665 5668 5669 5668 5665 5659 5653 5647 5641 5635 5629 5622 5616 5610 5605 5601 5598 5594 5591 5588 5585 5582 5581 5579 5576 5574 5572 5569 5567 5566 5564 5561 5557 5553 5548 5540 5532 5527 5520 5514
5668 5667 5665 5667 5668 5667 5666 5664 5660 5655 5651 5646 5641 5634 5627 5620 5614 5609 5606 5602 5598 5593 5590 5587 5583 5581 5580 5578 5574 5571 5570 5569 5566 5565 5562 5560 5557 5554 5550 5544 5538 5533 5525 5515
5666 5666 5665 5664 5664 5665 5663 5660 5656 5653 5649 5644 5639 5632 5627 5621 5615 5610 5605 5601 5596 5591 5589 5586 5582 5580 5578 5575 5572 5569 5566 5561 5560 5560 5560 5559 5555 5552 5548 5543 5537 5533 5526 5518
5658 5655 5655 5654 5656 5657 5658 5658 5656 5653 5649 5644 5638 5632 5626 5619 5613 5608 5604 5600 5596 5592 5589 5585 5582 5580 5577 5574 5570 5569 5567 5563 5556 5556 5555 5556 5553 5549 5545 5540 5535 5531 5525 5515
5660 5656 5654 5652 5652 5652 5652 5654 5654 5653 5649 5645 5640 5632 5624 5617 5611 5606 5603 5599 5595 5591 5588 5585 5582 5579 5576 5573 5569 5567 5566 5564 5558 5555 5555 5553 5551 5547 5543 5538 5534 5529 5522 5511
5654 5650 5647 5645 5645 5645 5646 5647 5649 5650 5650 5646 5639 5631 5624 5618 5612 5606 5602 5597 5593 5589 5587 5585 5582 5578 5575 5571 5568 5564 5562 5562 5560 5557 5554 5550 5546 5543 5539 5536 5532 5528 5522 5514
5643 5640 5638 5636 5636 5636 5637 5640 5643 5645 5647 5645 5639 5632 5624 5618 5612 5606 5600 5596 5595 5593 5590 5586 5582 5578 5575 5572 5566 5565 5563 5561 5559 5557 5554 5551 5548 5544 5540 5536 5531 5526 5520 5513
5632 5629 5627 5626 5626 5627 5629 5632 5634 5636 5641 5641 5637 5631 5625 5619 5613 5606 5599 5596 5595 5594 5591 5587 5583 5580 5576 5572 5566 5565 5563 5561 5559 5556 5554 5551 5548 5544 5540 5535 5530 5524 5517 5510
5620 5618 5617 5617 5617 5618 5621 5623 5626 5629 5633 5635 5635 5632 5625 5618 5613 5608 5603 5598 5597 5593 5591 5589 5586 5582 5579 5573 5570 5566 5563 5561 5559 5557 5554 5551 5547 5543 5539 5534 5528 5522 5515 5507
5606 5606 5606 5606 5607 5608 5612 5614 5618 5621 5625 5629 5631 5629 5625 5620 5616 5609 5603 5602 5598 5594 5592 5591 5589 5584 5578 5574 5572 5569 5565 5562 5559 5557 5555 5552 5548 5544 5538 5533 5527 5519 5512 5504
5594 5594 5595 5597 5598 5599 5601 5605 5609 5613 5618 5623 5626 5627 5624 5619 5615 5613 5610 5604 5599 5595 5593 5591 5587 5582 5576 5576 5573 5570 5567 5564 5561 5558 5556 5552 5548 5543 5538 5531 5523 5516 5508 5500
5585 5586 5587 5587 5588 5591 5594 5597 5600 5604 5609 5614 5619 5622 5622 5620 5616 5613 5610 5606 5600 5594 5593 5591 5584 5579 5577 5576 5574 5571 5568 5566 5564 5561 5556 5552 5547 5542 5535 5527 5520 5512 5505 5497
5574 5576 5579 5580 5581 5582 5585 5588 5591 5595 5600 5604 5610 5614 5616 5616 5614 5612 5608 5605 5601 5595 5592 5591 5584 5577 5578 5577 5574 5572 5569 5566 5563 5559 5555 5551 5546 5539 5532 5523 5516 5508 5500 5493
5565 5568 5570 5573 5577 5579 5581 5583 5585 5588 5592 5594 5598 5603 5608 5609 5609 5607 5605 5602 5600 5595 5592 5590 5586 5580 5578 5576 5574 5572 5569 5566 5563 5560 5555 5550 5543 5535 5526 5518 5510 5502 5495 5488